Date,TemperatureHighF,TemperatureAvgF,TemperatureLowF,DewpointHighF,DewpointAvgF,DewpointLowF,HumidityHigh,HumidityAvg,HumidityLow,PressureMaxIn,PressureMinIn,WindSpeedMaxMPH,WindSpeedAvgMPH,GustSpeedMaxMPH,PrecipitationSumIn
2013-2-1,73.9,58.8,47.6,41.0,35.0,26.0,67,43,24,30.29,30.10,5,0,0,0.00
2013-2-2,80.3,61.8,46.7,53.0,45.1,37.0,84,58,29,30.21,30.08,4,0,0,0.00
2013-2-3,77.2,62.2,46.5,46.0,37.0,24.0,76,43,15,30.26,29.95,9,0,0,0.00
2013-2-4,75.4,64.2,58.6,59.0,55.0,47.0,87,73,50,29.95,29.72,11,1,0,0.00
2013-2-5,82.2,65.4,53.3,55.0,47.8,37.0,91,58,20,29.90,29.78,4,0,0,0.00
2013-2-6,81.1,66.5,60.2,62.0,57.2,52.0,94,74,44,29.92,29.76,3,0,0,0.02
2013-2-7,85.7,69.0,60.2,60.0,54.1,37.0,87,63,26,29.99,29.75,7,0,0,0.00
2013-2-8,75.4,61.5,51.6,45.0,34.2,24.0,63,40,15,30.15,30.00,8,0,0,0.00
2013-2-9,69.8,59.8,54.4,66.0,54.6,37.0,95,83,47,30.01,29.69,8,0,0,0.01
2013-2-10,69.8,63.8,57.3,67.0,45.2,28.0,92,56,27,29.93,29.65,11,1,0,0.02
2013-2-11,59.8,55.7,51.9,50.0,46.2,40.0,90,71,53,30.02,29.88,7,0,0,0.01
2013-2-12,72.3,59.4,51.9,54.0,46.5,24.0,95,69,20,29.96,29.75,11,1,0,0.02
2013-2-13,66.4,52.4,42.1,40.0,33.6,29.0,72,52,26,30.09,29.95,8,1,0,0.00
2013-2-14,73.7,55.7,40.1,40.0,35.6,30.0,88,53,20,30.07,29.91,6,0,0,0.00
2013-2-15,64.8,52.9,44.1,39.0,34.8,20.0,80,52,31,30.31,29.99,10,1,0,0.00
2013-2-16,68.9,52.4,39.1,31.0,25.9,21.0,64,38,20,30.38,30.13,9,0,0,0.00
2013-2-17,71.6,57.4,40.2,50.0,35.4,28.0,76,46,23,30.13,29.90,13,2,0,0.00
2013-2-18,82.4,68.7,60.4,59.0,46.6,26.0,76,52,15,30.00,29.73,14,3,0,0.00
2013-2-19,75.8,60.3,49.6,33.0,29.4,21.0,52,33,13,30.19,30.00,5,0,0,0.00
2013-2-20,63.4,58.2,54.4,61.0,46.8,33.0,94,69,39,30.04,29.58,8,0,0,0.03
2013-2-21,78.6,67.9,54.1,66.0,43.4,18.0,95,51,12,29.78,29.48,12,2,0,0.02
2013-2-22,60.9,52.2,45.8,39.0,33.5,28.0,68,51,31,29.99,29.77,9,1,0,0.00
2013-2-23,73.5,55.0,43.5,36.0,31.3,27.0,57,43,21,30.00,29.80,13,0,0,0.00
2013-2-24,76.0,59.3,41.9,57.0,45.4,35.0,84,62,37,29.85,29.53,10,1,0,0.00
2013-2-25,63.5,57.5,48.5,59.0,36.5,18.0,92,50,18,29.74,29.45,27,7,0,0.00
2013-2-26,69.1,54.4,43.2,36.0,28.3,24.0,59,40,20,29.89,29.74,12,2,0,0.00
2013-2-27,65.6,56.0,48.8,36.0,26.9,18.0,58,34,18,30.14,29.79,11,1,0,0.00
2013-2-28,65.0,50.9,43.6,32.0,23.4,-99.9,60,38,20,30.26,30.11,7,-21,0,0.00